Weather observations for the past three days for
Knoxville, McGhee Tyson Airport
Imperial (Metric)
Date Time (edt) Wind (mph) Vis. (mi.) Weather Sky Cond. Temperature (ºF) Relative Humidity Wind Chill (°F) Heat Index (°F) Pressure Precipitation (in)
Air Dwpt 6 hour altimeter (in) sea level (mb) 1 hr 3 hr 6 hr
Max. Min.
22 11:53 Calm 10.00 Partly Cloudy SCT250 89.1 66 47% 92 30.13 1018.8
22 10:53 Calm 10.00 Partly Cloudy SCT250 84.9 66.9 55% 88 30.13 1019.1
22 09:53 Vrbl 3 10.00 Partly Cloudy SCT250 82.9 68 61% 86 30.16 1019.8
22 08:53 SW 3 10.00 Partly Cloudy SCT250 80.1 68 67% 83 30.16 1020.0
22 07:53 Calm 10.00 Partly Cloudy SCT120 75.9 68 77 71.1 77% 77 30.16 1019.9
22 06:53 E 3 10.00 Partly Cloudy FEW065 SCT110 72 68 87% 30.15 1019.8
22 05:53 Calm 10.00 Partly Cloudy SCT065 SCT100 72 68 87% 30.15 1019.5
22 04:53 Calm 10.00 Overcast BKN065 OVC100 73 68 84% 30.14 1019.2
22 03:53 Calm 10.00 Mostly Cloudy FEW075 BKN100 73 68 84% 30.13 1019.0
22 02:53 NW 5 10.00 Fair CLR 77 66.9 71% 79 30.13 1019.1
22 01:53 Calm 10.00 Fair CLR 77 66.9 88 75 71% 79 30.14 1019.2
22 00:53 Calm 10.00 Fair CLR 77 66.9 71% 79 30.14 1019.4
21 23:53 Calm 10.00 Partly Cloudy FEW100 SCT250 79 66.9 67% 81 30.15 1019.6
21 22:53 Calm 10.00 A Few Clouds FEW100 FEW250 79 69.1 72% 82 30.14 1019.3
21 21:53 NE 3 10.00 Partly Cloudy FEW055 FEW100 SCT250 82 66.9 60% 85 30.13 1018.8
21 20:53 NE 3 10.00 Mostly Cloudy FEW110 BKN250 84 66 55% 86 30.12 1018.7
21 19:53 E 6 10.00 Mostly Cloudy FEW080 BKN250 88 64.9 93 88 46% 90 30.12 1018.8
21 18:53 NE 7 10.00 Mostly Cloudy FEW055 BKN250 91.9 63 38% 93 30.13 1018.9
21 17:53 NE 8 10.00 Mostly Cloudy FEW055 BKN250 91.9 61 36% 92 30.14 1019.4
21 16:53 NE 8 10.00 Mostly Cloudy SCT055 BKN250 91.9 64.9 41% 94 30.15 1019.7
21 15:53 Vrbl 3 10.00 Partly Cloudy FEW055 SCT250 91.9 64.9 41% 94 30.17 1020.2
21 14:53 NW 8 10.00 Partly Cloudy FEW055 SCT250 90 64.9 44% 92 30.19 1021.1
21 13:53 Vrbl 5 10.00 Partly Cloudy SCT050 SCT250 90 64.9 91 73 44% 92 30.22 1022.0
21 12:53 Calm 10.00 Partly Cloudy SCT045 SCT250 89.1 66 47% 92 30.24 1022.8
21 11:53 W 7 10.00 A Few Clouds FEW047 FEW250 86 68 55% 89 30.26 1023.5
21 10:53 W 7 10.00 Partly Cloudy FEW041 SCT250 84 66 55% 86 30.27 1023.9
21 09:53 S 7 10.00 Partly Cloudy FEW037 SCT250 81 66 61% 83 30.27 1023.8
21 08:53 Vrbl 3 10.00 Partly Cloudy FEW100 SCT250 77 66.9 71% 79 30.27 1023.8
21 07:53 NE 5 10.00 A Few Clouds FEW100 FEW250 73 68 75.9 69.1 84% 30.27 1023.7
21 06:53 NE 3 10.00 A Few Clouds FEW050 FEW100 69.1 66.9 93% 30.26 1023.3
21 05:53 E 3 10.00 A Few Clouds FEW050 69.1 66.9 93% 30.25 1023.0
21 04:53 Calm 10.00 Fair CLR 72 68 87% 30.24 1022.7
21 02:53 Calm 10.00 Mostly Cloudy BKN060 73.9 66.9 79% 30.24 1022.8
21 01:53 W 3 10.00 Mostly Cloudy FEW030 BKN060 75.9 68 87.1 73.9 77% 77 30.25 1023.1
21 00:53 Calm 10.00 Mostly Cloudy BKN070 77 68 74% 79 30.25 1023.2
20 23:53 E 5 10.00 Mostly Cloudy BKN080 75.9 68 77% 77 30.25 1023.1
20 22:53 NE 3 10.00 A Few Clouds FEW060 77 68 74% 79 30.25 1022.9
20 21:53 Calm 10.00 A Few Clouds FEW060 80.1 64.9 60% 82 30.23 1022.5
20 20:53 N 5 10.00 A Few Clouds FEW055 84 63 49% 85 30.23 1022.4
20 19:53 NE 5 10.00 A Few Clouds FEW055 87.1 63 91 86 45% 88 30.23 1022.5
20 18:53 N 6 10.00 A Few Clouds FEW050 89.1 62.1 41% 89 30.23 1022.6
20 17:53 NE 6 10.00 A Few Clouds FEW050 90 62.1 39% 90 30.24 1022.7
20 16:53 N 12 10.00 Partly Cloudy SCT050 SCT250 90 61 38% 90 30.25 1023.1
20 15:53 NE 12 10.00 Partly Cloudy SCT050 SCT250 89.1 64 43% 90 30.27 1023.8
20 14:53 Vrbl 7 10.00 Mostly Cloudy BKN050 89.1 64.9 45% 91 30.29 1024.5
20 13:53 NE 9 10.00 Partly Cloudy SCT048 SCT250 88 66 88 70 48% 90 30.31 1025.0
20 12:53 NW 5 10.00 Partly Cloudy SCT042 SCT250 84.9 64 50% 86 30.33 1025.8
20 11:53 Vrbl 3 10.00 A Few Clouds FEW040 FEW250 84.9 64.9 51% 87 30.34 1026.0
20 10:53 NE 6 10.00 A Few Clouds FEW030 FEW250 82.9 66 57% 85 30.34 1026.2
20 09:53 Calm 10.00 A Few Clouds FEW250 79 66 65% 81 30.33 1026.1
20 08:53 E 3 10.00 A Few Clouds FEW250 73.9 64 71% 30.33 1026.1
20 07:53 NE 3 10.00 A Few Clouds FEW180 FEW250 70 66 72 66 87% 30.33 1025.9
20 06:53 Calm 10.00 Patches Fog FEW080 FEW150 66.9 64.9 93% 30.32 1025.7
20 05:53 Calm 10.00 A Few Clouds FEW080 68 64.9 90% 30.31 1025.3
20 04:53 Calm 10.00 A Few Clouds FEW003 FEW100 69.1 66 90% 30.3 1024.9
20 03:53 Calm 10.00 A Few Clouds FEW100 68 66 93% 30.29 1024.4
20 02:53 N 3 10.00 A Few Clouds FEW100 69.1 66.9 93% 30.28 1024.1
20 01:53 NE 3 10.00 A Few Clouds FEW100 70 66.9 82 69.1 90% 30.27 1023.9
20 00:53 W 7 10.00 A Few Clouds FEW100 FEW250 75 68 79% 76 30.27 1023.8
19 23:53 SW 6 10.00 A Few Clouds FEW100 FEW250 75 66.9 76% 76 30.27 1024.0
19 22:53 SW 6 10.00 Partly Cloudy SCT250 75.9 66 72% 77 30.27 1023.8
19 21:53 Calm 10.00 Mostly Cloudy BKN250 77 68 74% 79 30.24 1022.9
19 20:53 N 3 10.00 Overcast FEW130 OVC250 80.1 66.9 64% 82 30.23 1022.6
19 19:53 NE 3 10.00 Overcast FEW130 OVC250 82 66 88 81 58% 84 30.23 1022.5
19 18:53 NE 8 10.00 Overcast FEW045 OVC250 82.9 64.9 55% 85 30.23 1022.5
19 17:53 NE 7 10.00 Overcast FEW045 OVC250 84.9 66.9 55% 88 30.24 1022.8
19 16:53 Vrbl 5 10.00 Overcast FEW045 OVC250 87.1 64.9 48% 89 30.24 1022.9
19 15:53 Vrbl 6 10.00 Overcast SCT046 OVC250 86 64 48% 87 30.25 1023.2
19 14:53 Vrbl 3 10.00 Overcast FEW040 BKN200 OVC250 87.1 66 50% 89 30.27 1023.6
19 13:53 Calm 10.00 Overcast FEW047 BKN200 OVC250 84 64.9 84.9 70 53% 86 30.28 1024.2
19 12:53 W 5 10.00 Overcast FEW042 BKN200 OVC250 82 66.9 60% 85 30.29 1024.5
Date Time (edt) Wind (mph) Vis. (mi.) Weather Sky Cond. Air Dwpt Max. Min. Relative Humidity Wind Chill (°F) Heat Index (°F) altimeter (in) sea level (mb) 1 hr 3 hr 6 hr
6 hour
Temperature (ºF) Pressure Precipitation (in)